Regional Weather Roundup
Issued by NWS

Home | Current Version | Previous Version | Graphics & Text | Print | Product List | Glossary Off
Versions: 1 2 3 4 5 6 7 8 9 10 11 12 13 14 15 16 17 18 19 20 21 22 23 24 25 26 27 28 29 30 31 32 33 34 35 36 37 38 39 40 41 42 43 44 45 46 47 48 49 50

011
ASUS43 KTOP 242159
RWRKS

WEATHER ROUNDUP FOR KANSAS
NATIONAL WEATHER SERVICE GOODLAND KS
400 PM CST FRI FEB 24 2017

NOTE:  "FAIR" INDICATES FEW OR NO CLOUDS BELOW 12,000 FEET WITH NO
SIGNIFICANT WEATHER AND/OR OBSTRUCTIONS TO VISIBILITY.

KSZ001>006-013>018-027>032-041>047-242300-
NORTHWEST KANSAS

CITY           SKY/WX    TMP DP  RH WIND       PRES   REMARKS
GOODLAND       CLOUDY    29  20  69 N14       30.00R WCI  18
HAYS           MOSUNNY   36  19  50 N20G30    29.99R WCI  25
HILL CITY      PTSUNNY   32  16  51 N25G32    30.03R WCI  19
RUSSELL        PTSUNNY   33  18  53 N23G33    29.99R WCI  21
$$

KSZ061>065-074>080-084>089-242300-
SOUTHWEST KANSAS

CITY           SKY/WX    TMP DP  RH WIND       PRES   REMARKS
DODGE CITY     CLOUDY    35  19  52 N17G29    29.99R WCI  25
ELKHART          N/A     38  11  33 NW12        N/A  WCI  30
GARDEN CITY    CLOUDY    36  17  46 N20G30    29.99R WCI  25
GREAT BEND     CLOUDY    35  20  54 NW21      29.99R WCI  24
LIBERAL        CLOUDY    43  16  33 N14G25    29.99R
$$

KSZ066>073-081>083-090>101-242300-
SOUTHEAST KANSAS

CITY           SKY/WX    TMP DP  RH WIND       PRES   REMARKS
CHANUTE        CLOUDY    38  22  52 NW21G33   29.88R WCI  28
COFFEYVILLE    PTSUNNY   42  23  46 NW25G38   29.90R
HUTCHINSON     CLOUDY    34  20  56 NW22G31   29.97R WCI  22
NEWTON         CLOUDY    31  21  66 NW18      29.96R WCI  19
PARSONS        CLOUDY    40  23  50 NW23      29.90R WCI  30
WICHITA INTL   PTSUNNY   35  19  52 NW24G33   29.96R WCI  23
WICHITA JABRA  PTSUNNY   36  20  52 NW22G30   29.94R WCI  25
WINFIELD       CLOUDY    40  21  46 NW23G35   29.95R WCI  30
$$

KSZ007>012-019>026-033>040-048>060-102>105-242300-
NORTHEAST KANSAS

CITY           SKY/WX    TMP DP  RH WIND       PRES   REMARKS
CONCORDIA      CLOUDY    26  20  77 N22G30    29.98R WCI  12
EMPORIA        CLOUDY    31  21  66 NW18G26   29.91R WCI  19
LAWRENCE       CLOUDY    32  26  78 NW21G26   29.86R WCI  20
MANHATTAN      LGT SNOW  29  22  75 NW13G24   29.95R WCI  19
OLATHE IND     CLOUDY    31  26  82 NW17      29.84R WCI  19
OLATHE EXE     FLURRIES  31  27  85 NW18G28   29.83R WCI  19
SALINA         CLOUDY    33  22  63 NW24G30   29.98R WCI  20
TOPEKA BILLARD FLURRIES  31  23  72 NW18G31   29.89R WCI  19
TOPEKA FORBES  CLOUDY    33  23  66 NW20G28   29.88R WCI  21
$$




USA.gov is the U.S. government's official web portal to all federal, state and local government web resources and services.